Time,TemperatureF,DewpointF,PressureIn,WindDirection,WindDirectionDegrees,WindSpeedMPH,WindSpeedGustMPH,Humidity,HourlyPrecipIn,Conditions,Clouds,dailyrainin,SoftwareType,DateUTC
2013-05-26 00:02:00,47.0,42.0,-100.00,NW,320,3.0,6.0,83,-99.99,,,-99.99,,2013-05-26 04:02:00,
2013-05-26 00:12:00,46.0,41.0,-100.00,North,350,3.0,6.0,82,-99.99,,,-99.99,,2013-05-26 04:12:00,
2013-05-26 00:23:00,46.0,42.0,-100.00,NW,310,5.0,5.0,85,-99.99,,,-99.99,,2013-05-26 04:23:00,
2013-05-26 00:33:00,45.0,40.0,-100.00,NNW,340,5.0,6.0,83,-99.99,,,-99.99,,2013-05-26 04:33:00,
2013-05-26 00:42:00,45.0,40.0,-100.00,NNW,340,5.0,6.0,83,-99.99,,,-99.99,,2013-05-26 04:42:00,
2013-05-26 00:52:00,45.0,41.0,-100.00,NW,315,3.0,5.0,85,-99.99,,,-99.99,,2013-05-26 04:52:00,
2013-05-26 01:02:00,45.0,41.0,-100.00,NW,315,3.0,5.0,85,-99.99,,,-99.99,,2013-05-26 05:02:00,
2013-05-26 01:12:00,45.0,41.0,-100.00,NW,325,3.0,6.0,87,-99.99,,,-99.99,,2013-05-26 05:12:00,
2013-05-26 01:22:00,44.0,41.0,-100.00,North,10,3.0,7.0,88,-99.99,,,-99.99,,2013-05-26 05:22:00,
2013-05-26 01:32:00,44.0,42.0,-100.00,NNW,330,3.0,5.0,91,-99.99,,,-99.99,,2013-05-26 05:32:00,
2013-05-26 01:42:00,44.0,42.0,-100.00,NNW,330,3.0,5.0,91,-99.99,,,-99.99,,2013-05-26 05:42:00,
2013-05-26 01:52:00,43.0,42.0,-100.00,NNE,25,5.0,7.0,95,-99.99,,,-99.99,,2013-05-26 05:52:00,
2013-05-26 02:01:00,43.0,42.0,-100.00,NNE,25,5.0,7.0,95,-99.99,,,-99.99,,2013-05-26 06:01:00,
2013-05-26 02:12:00,43.0,42.0,-100.00,North,350,2.0,6.0,97,-99.99,,,-99.99,,2013-05-26 06:12:00,
2013-05-26 02:22:00,43.0,42.0,-100.00,North,350,5.0,5.0,96,-99.99,,,-99.99,,2013-05-26 06:22:00,
2013-05-26 02:32:00,43.0,41.0,-100.00,NNE,20,3.0,5.0,95,-99.99,,,-99.99,,2013-05-26 06:32:00,
2013-05-26 02:42:00,43.0,41.0,-100.00,NNE,20,3.0,5.0,95,-99.99,,,-99.99,,2013-05-26 06:42:00,
2013-05-26 02:52:00,42.0,41.0,-100.00,NNE,20,5.0,7.0,96,-99.99,,,-99.99,,2013-05-26 06:52:00,
2013-05-26 03:01:00,44.0,41.0,-100.00,NNE,15,6.0,8.0,92,-99.99,,,-99.99,,2013-05-26 07:01:00,
2013-05-26 03:11:00,44.0,39.0,-100.00,NNW,345,5.0,8.0,85,-99.99,,,-99.99,,2013-05-26 07:11:00,
2013-05-26 03:21:00,44.0,39.0,-100.00,NNW,345,5.0,8.0,85,-99.99,,,-99.99,,2013-05-26 07:21:00,
2013-05-26 03:31:00,42.0,38.0,-100.00,NNE,20,5.0,7.0,84,-99.99,,,-99.99,,2013-05-26 07:31:00,
2013-05-26 03:42:00,42.0,38.0,-100.00,NNE,20,5.0,7.0,84,-99.99,,,-99.99,,2013-05-26 07:42:00,
2013-05-26 03:52:00,42.0,38.0,-100.00,NNE,15,6.0,9.0,84,-99.99,,,-99.99,,2013-05-26 07:52:00,
2013-05-26 04:01:00,42.0,38.0,-100.00,North,5,5.0,8.0,84,-99.99,,,-99.99,,2013-05-26 08:01:00,
2013-05-26 04:12:00,42.0,38.0,-100.00,North,355,5.0,8.0,85,-99.99,,,-99.99,,2013-05-26 08:12:00,
2013-05-26 04:21:00,42.0,37.0,-100.00,North,5,5.0,7.0,85,-99.99,,,-99.99,,2013-05-26 08:21:00,
2013-05-26 04:32:00,41.0,37.0,-100.00,North,0,3.0,7.0,88,-99.99,,,-99.99,,2013-05-26 08:32:00,
2013-05-26 04:42:00,41.0,37.0,-100.00,North,0,3.0,7.0,88,-99.99,,,-99.99,,2013-05-26 08:42:00,
2013-05-26 04:53:00,39.0,37.0,-100.00,NNW,340,5.0,5.0,92,-99.99,,,-99.99,,2013-05-26 08:53:00,
2013-05-26 05:01:00,39.0,37.0,-100.00,NNW,340,5.0,5.0,92,-99.99,,,-99.99,,2013-05-26 09:01:00,
2013-05-26 05:11:00,39.0,37.0,-100.00,NNE,30,5.0,6.0,94,-99.99,,,-99.99,,2013-05-26 09:11:00,
2013-05-26 05:21:00,39.0,37.0,-100.00,NNE,30,3.0,5.0,95,-99.99,,,-99.99,,2013-05-26 09:21:00,
2013-05-26 05:33:00,39.0,37.0,-100.00,North,10,5.0,6.0,93,-99.99,,,-99.99,,2013-05-26 09:33:00,
2013-05-26 05:42:00,39.0,37.0,-100.00,North,10,5.0,6.0,93,-99.99,,,-99.99,,2013-05-26 09:42:00,
2013-05-26 05:52:00,38.0,37.0,-100.00,NNE,15,5.0,6.0,93,-99.99,,,-99.99,,2013-05-26 09:52:00,
2013-05-26 06:02:00,38.0,37.0,-100.00,NNW,340,3.0,5.0,93,-99.99,,,-99.99,,2013-05-26 10:02:00,
2013-05-26 06:12:00,38.0,37.0,-100.00,North,10,5.0,6.0,93,-99.99,,,-99.99,,2013-05-26 10:12:00,
2013-05-26 06:23:00,39.0,37.0,-100.00,North,5,3.0,6.0,94,-99.99,,,-99.99,,2013-05-26 10:23:00,
2013-05-26 06:33:00,39.0,37.0,-100.00,NNE,25,5.0,7.0,93,-99.99,,,-99.99,,2013-05-26 10:33:00,
2013-05-26 06:42:00,39.0,37.0,-100.00,North,10,6.0,7.0,93,-99.99,,,-99.99,,2013-05-26 10:42:00,
2013-05-26 06:52:00,39.0,37.0,-100.00,North,10,6.0,7.0,93,-99.99,,,-99.99,,2013-05-26 10:52:00,
2013-05-26 07:03:00,38.0,37.0,-100.00,NNE,20,5.0,7.0,94,-99.99,,,-99.99,,2013-05-26 11:03:00,
2013-05-26 07:11:00,38.0,36.0,-100.00,NNW,345,3.0,6.0,95,-99.99,,,-99.99,,2013-05-26 11:11:00,
2013-05-26 07:22:00,38.0,37.0,-100.00,NNW,345,3.0,5.0,96,-99.99,,,-99.99,,2013-05-26 11:22:00,
2013-05-26 07:32:00,38.0,37.0,-100.00,North,355,6.0,7.0,95,-99.99,,,-99.99,,2013-05-26 11:32:00,
2013-05-26 07:42:00,40.0,38.0,-100.00,North,5,6.0,8.0,93,-99.99,,,-99.99,,2013-05-26 11:42:00,
2013-05-26 07:52:00,40.0,37.0,-100.00,North,10,5.0,7.0,89,-99.99,,,-99.99,,2013-05-26 11:52:00,
2013-05-26 08:02:00,40.0,37.0,-100.00,NNW,340,3.0,5.0,88,-99.99,,,-99.99,,2013-05-26 12:02:00,
2013-05-26 08:12:00,41.0,37.0,-100.00,NNW,340,3.0,5.0,86,-99.99,,,-99.99,,2013-05-26 12:12:00,
2013-05-26 08:21:00,42.0,38.0,-100.00,North,5,3.0,5.0,86,-99.99,,,-99.99,,2013-05-26 12:21:00,
2013-05-26 08:32:00,45.0,39.0,-100.00,NNW,345,5.0,7.0,82,-99.99,,,-99.99,,2013-05-26 12:32:00,
2013-05-26 08:42:00,45.0,39.0,-100.00,NNW,345,5.0,7.0,82,-99.99,,,-99.99,,2013-05-26 12:42:00,
2013-05-26 08:52:00,47.0,42.0,-100.00,North,355,5.0,7.0,82,-99.99,,,-99.99,,2013-05-26 12:52:00,
2013-05-26 09:02:00,47.0,42.0,-100.00,North,355,5.0,7.0,82,-99.99,,,-99.99,,2013-05-26 13:02:00,
2013-05-26 09:11:00,49.0,43.0,-100.00,NNW,345,3.0,6.0,80,-99.99,,,-99.99,,2013-05-26 13:11:00,
2013-05-26 09:21:00,50.0,42.0,-100.00,NW,305,5.0,7.0,73,-99.99,,,-99.99,,2013-05-26 13:21:00,
2013-05-26 09:32:00,52.0,40.0,-100.00,NE,50,5.0,6.0,64,-99.99,,,-99.99,,2013-05-26 13:32:00,
2013-05-26 09:42:00,53.0,37.0,-100.00,NE,55,5.0,8.0,55,-99.99,,,-99.99,,2013-05-26 13:42:00,
2013-05-26 09:52:00,53.0,36.0,-100.00,NE,45,6.0,10.0,51,-99.99,,,-99.99,,2013-05-26 13:52:00,
2013-05-26 10:02:00,53.0,36.0,-100.00,NNE,30,6.0,12.0,52,-99.99,,,-99.99,,2013-05-26 14:02:00,
2013-05-26 10:11:00,54.0,37.0,-100.00,NE,35,5.0,10.0,51,-99.99,,,-99.99,,2013-05-26 14:11:00,
2013-05-26 10:21:00,55.0,38.0,-100.00,NE,45,6.0,8.0,52,-99.99,,,-99.99,,2013-05-26 14:21:00,
2013-05-26 10:32:00,56.0,39.0,-100.00,ENE,60,3.0,7.0,52,-99.99,,,-99.99,,2013-05-26 14:32:00,
2013-05-26 10:42:00,57.0,38.0,-100.00,ENE,75,5.0,7.0,49,-99.99,,,-99.99,,2013-05-26 14:42:00,
2013-05-26 10:52:00,57.0,38.0,-100.00,East,80,3.0,9.0,50,-99.99,,,-99.99,,2013-05-26 14:52:00,
2013-05-26 11:01:00,58.0,37.0,-100.00,SE,145,6.0,9.0,46,-99.99,,,-99.99,,2013-05-26 15:01:00,
2013-05-26 11:12:00,58.0,38.0,-100.00,SSE,160,5.0,10.0,46,-99.99,,,-99.99,,2013-05-26 15:12:00,
2013-05-26 11:22:00,59.0,35.0,-100.00,ESE,120,5.0,10.0,40,-99.99,,,-99.99,,2013-05-26 15:22:00,
2013-05-26 11:33:00,59.0,39.0,-100.00,SSE,150,6.0,9.0,47,-99.99,,,-99.99,,2013-05-26 15:33:00,
2013-05-26 11:43:00,60.0,39.0,-100.00,SE,140,7.0,10.0,46,-99.99,,,-99.99,,2013-05-26 15:43:00,
2013-05-26 11:53:00,60.0,40.0,-100.00,South,185,6.0,10.0,48,-99.99,,,-99.99,,2013-05-26 15:53:00,
2013-05-26 12:03:00,60.0,37.0,-100.00,SE,125,8.0,10.0,42,-99.99,,,-99.99,,2013-05-26 16:03:00,
2013-05-26 12:12:00,61.0,39.0,-100.00,SSE,160,6.0,10.0,44,-99.99,,,-99.99,,2013-05-26 16:12:00,
2013-05-26 12:23:00,62.0,37.0,-100.00,South,185,6.0,12.0,40,-99.99,,,-99.99,,2013-05-26 16:23:00,
2013-05-26 12:33:00,62.0,40.0,-100.00,SE,140,8.0,15.0,44,-99.99,,,-99.99,,2013-05-26 16:33:00,
2013-05-26 12:42:00,62.0,40.0,-100.00,SE,140,8.0,15.0,44,-99.99,,,-99.99,,2013-05-26 16:42:00,
2013-05-26 12:52:00,62.0,38.0,-100.00,South,190,9.0,13.0,42,-99.99,,,-99.99,,2013-05-26 16:52:00,
2013-05-26 13:02:00,61.0,42.0,-100.00,South,170,7.0,13.0,49,-99.99,,,-99.99,,2013-05-26 17:02:00,
2013-05-26 13:11:00,61.0,41.0,-100.00,South,185,9.0,13.0,48,-99.99,,,-99.99,,2013-05-26 17:11:00,
2013-05-26 13:22:00,61.0,42.0,-100.00,South,170,10.0,14.0,49,-99.99,,,-99.99,,2013-05-26 17:22:00,
2013-05-26 13:32:00,61.0,43.0,-100.00,South,170,10.0,14.0,50,-99.99,,,-99.99,,2013-05-26 17:32:00,
2013-05-26 13:42:00,62.0,43.0,-100.00,SSE,165,9.0,14.0,50,-99.99,,,-99.99,,2013-05-26 17:42:00,
2013-05-26 13:52:00,62.0,42.0,-100.00,South,175,10.0,16.0,47,-99.99,,,-99.99,,2013-05-26 17:52:00,
2013-05-26 14:01:00,63.0,43.0,-100.00,SSE,165,5.0,15.0,48,-99.99,,,-99.99,,2013-05-26 18:01:00,
2013-05-26 14:12:00,62.0,45.0,-100.00,SSE,160,10.0,15.0,53,-99.99,,,-99.99,,2013-05-26 18:12:00,
2013-05-26 14:21:00,62.0,45.0,-100.00,SE,130,9.0,16.0,53,-99.99,,,-99.99,,2013-05-26 18:21:00,
2013-05-26 14:32:00,61.0,43.0,-100.00,SE,140,10.0,17.0,51,-99.99,,,-99.99,,2013-05-26 18:32:00,
2013-05-26 14:42:00,60.0,42.0,-100.00,SSE,155,14.0,17.0,50,-99.99,,,-99.99,,2013-05-26 18:42:00,
2013-05-26 14:52:00,60.0,41.0,-100.00,SSE,160,10.0,16.0,49,-99.99,,,-99.99,,2013-05-26 18:52:00,
2013-05-26 15:01:00,61.0,43.0,-100.00,SE,145,9.0,15.0,52,-99.99,,,-99.99,,2013-05-26 19:01:00,
2013-05-26 15:11:00,61.0,43.0,-100.00,South,170,8.0,16.0,52,-99.99,,,-99.99,,2013-05-26 19:11:00,
2013-05-26 15:22:00,61.0,42.0,-100.00,South,180,8.0,15.0,50,-99.99,,,-99.99,,2013-05-26 19:22:00,
2013-05-26 15:32:00,60.0,42.0,-100.00,South,175,8.0,17.0,52,-99.99,,,-99.99,,2013-05-26 19:32:00,
2013-05-26 15:42:00,60.0,40.0,-100.00,SSE,160,12.0,16.0,47,-99.99,,,-99.99,,2013-05-26 19:42:00,
2013-05-26 15:52:00,61.0,41.0,-100.00,South,170,9.0,16.0,49,-99.99,,,-99.99,,2013-05-26 19:52:00,
2013-05-26 16:02:00,61.0,41.0,-100.00,SSE,155,8.0,15.0,48,-99.99,,,-99.99,,2013-05-26 20:02:00,
2013-05-26 16:11:00,62.0,42.0,-100.00,SSE,160,7.0,15.0,47,-99.99,,,-99.99,,2013-05-26 20:11:00,
2013-05-26 16:22:00,61.0,40.0,-100.00,SSE,155,10.0,15.0,45,-99.99,,,-99.99,,2013-05-26 20:22:00,
2013-05-26 16:32:00,62.0,41.0,-100.00,SSE,165,12.0,17.0,46,-99.99,,,-99.99,,2013-05-26 20:32:00,
2013-05-26 16:42:00,61.0,37.0,-100.00,SSE,165,10.0,18.0,40,-99.99,,,-99.99,,2013-05-26 20:42:00,
2013-05-26 16:52:00,62.0,38.0,-100.00,SSE,160,13.0,17.0,40,-99.99,,,-99.99,,2013-05-26 20:52:00,
2013-05-26 17:02:00,62.0,38.0,-100.00,SSE,160,13.0,17.0,40,-99.99,,,-99.99,,2013-05-26 21:02:00,
2013-05-26 17:11:00,62.0,34.0,-100.00,SSE,150,13.0,20.0,35,-99.99,,,-99.99,,2013-05-26 21:11:00,
2013-05-26 17:22:00,62.0,36.0,-100.00,SSE,160,13.0,18.0,37,-99.99,,,-99.99,,2013-05-26 21:22:00,
2013-05-26 17:33:00,62.0,35.0,-100.00,SSE,160,13.0,17.0,36,-99.99,,,-99.99,,2013-05-26 21:33:00,
2013-05-26 17:43:00,63.0,36.0,-100.00,SE,135,9.0,16.0,36,-99.99,,,-99.99,,2013-05-26 21:43:00,
2013-05-26 17:53:00,62.0,35.0,-100.00,SSE,160,10.0,17.0,36,-99.99,,,-99.99,,2013-05-26 21:53:00,
2013-05-26 18:03:00,62.0,35.0,-100.00,SSE,160,10.0,17.0,36,-99.99,,,-99.99,,2013-05-26 22:03:00,
2013-05-26 18:12:00,62.0,36.0,-100.00,SSE,165,12.0,16.0,39,-99.99,,,-99.99,,2013-05-26 22:12:00,
2013-05-26 18:23:00,61.0,36.0,-100.00,SSE,160,10.0,17.0,39,-99.99,,,-99.99,,2013-05-26 22:23:00,
2013-05-26 18:33:00,62.0,33.0,-100.00,SSE,150,8.0,17.0,34,-99.99,,,-99.99,,2013-05-26 22:33:00,
2013-05-26 18:42:00,62.0,33.0,-100.00,SSE,150,8.0,17.0,34,-99.99,,,-99.99,,2013-05-26 22:42:00,
2013-05-26 18:53:00,61.0,33.0,-100.00,SSE,160,10.0,16.0,35,-99.99,,,-99.99,,2013-05-26 22:53:00,
2013-05-26 19:02:00,62.0,34.0,-100.00,SSE,155,7.0,16.0,35,-99.99,,,-99.99,,2013-05-26 23:02:00,
2013-05-26 19:12:00,62.0,34.0,-100.00,SSE,155,9.0,15.0,36,-99.99,,,-99.99,,2013-05-26 23:12:00,
2013-05-26 19:22:00,62.0,34.0,-100.00,SSE,165,7.0,13.0,35,-99.99,,,-99.99,,2013-05-26 23:22:00,
2013-05-26 19:32:00,62.0,33.0,-100.00,South,185,8.0,13.0,33,-99.99,,,-99.99,,2013-05-26 23:32:00,
2013-05-26 19:40:00,63.0,29.0,-100.00,South,170,7.0,13.0,28,-99.99,,,-99.99,,2013-05-26 23:40:00,
2013-05-26 19:43:00,62.0,32.0,-100.00,SW,220,9.0,14.0,33,-99.99,,,-99.99,,2013-05-26 23:43:00,
2013-05-26 19:52:00,62.0,32.0,-100.00,South,190,7.0,13.0,32,-99.99,,,-99.99,,2013-05-26 23:52:00,
2013-05-26 20:02:00,63.0,32.0,-100.00,South,170,5.0,12.0,32,-99.99,,,-99.99,,2013-05-27 00:02:00,
2013-05-26 20:11:00,63.0,32.0,-100.00,SSW,205,6.0,13.0,32,-99.99,,,-99.99,,2013-05-27 00:11:00,
2013-05-26 20:22:00,63.0,29.0,-100.00,South,170,7.0,13.0,28,-99.99,,,-99.99,,2013-05-27 00:22:00,
2013-05-26 20:32:00,63.0,29.0,-100.00,South,170,7.0,13.0,28,-99.99,,,-99.99,,2013-05-27 00:32:00,
2013-05-26 20:52:00,63.0,30.0,-100.00,South,175,7.0,9.0,29,-99.99,,,-99.99,,2013-05-27 00:52:00,
2013-05-26 21:01:00,62.0,32.0,-100.00,SE,135,5.0,9.0,32,-99.99,,,-99.99,,2013-05-27 01:01:00,
2013-05-26 21:11:00,62.0,36.0,-100.00,East,90,3.0,7.0,37,-99.99,,,-99.99,,2013-05-27 01:11:00,
2013-05-26 21:22:00,61.0,40.0,-100.00,ESE,115,3.0,8.0,47,-99.99,,,-99.99,,2013-05-27 01:22:00,
2013-05-26 21:31:00,59.0,44.0,-100.00,ESE,110,3.0,8.0,58,-99.99,,,-99.99,,2013-05-27 01:31:00,
2013-05-26 21:42:00,58.0,44.0,-100.00,East,80,3.0,5.0,59,-99.99,,,-99.99,,2013-05-27 01:42:00,
2013-05-26 21:52:00,56.0,43.0,-100.00,NE,55,5.0,6.0,60,-99.99,,,-99.99,,2013-05-27 01:52:00,
2013-05-26 22:02:00,55.0,44.0,-100.00,ENE,60,3.0,5.0,66,-99.99,,,-99.99,,2013-05-27 02:02:00,
2013-05-26 22:11:00,54.0,45.0,-100.00,East,90,2.0,5.0,73,-99.99,,,-99.99,,2013-05-27 02:11:00,
2013-05-26 22:22:00,53.0,46.0,-100.00,WSW,255,3.0,3.0,78,-99.99,,,-99.99,,2013-05-27 02:22:00,
2013-05-26 22:32:00,52.0,47.0,-100.00,NE,35,5.0,5.0,81,-99.99,,,-99.99,,2013-05-27 02:32:00,
2013-05-26 22:42:00,52.0,46.0,-100.00,NNE,25,5.0,6.0,80,-99.99,,,-99.99,,2013-05-27 02:42:00,
2013-05-26 22:52:00,52.0,47.0,-100.00,NE,45,7.0,8.0,83,-99.99,,,-99.99,,2013-05-27 02:52:00,
2013-05-26 23:02:00,51.0,47.0,-100.00,South,180,5.0,7.0,87,-99.99,,,-99.99,,2013-05-27 03:02:00,
2013-05-26 23:11:00,50.0,47.0,-100.00,SW,230,3.0,6.0,88,-99.99,,,-99.99,,2013-05-27 03:11:00,
2013-05-26 23:21:00,50.0,47.0,-100.00,NW,305,2.0,5.0,89,-99.99,,,-99.99,,2013-05-27 03:21:00,
2013-05-26 23:33:00,50.0,47.0,-100.00,WSW,240,2.0,5.0,92,-99.99,,,-99.99,,2013-05-27 03:33:00,
2013-05-26 23:43:00,49.0,48.0,-100.00,West,280,2.0,5.0,94,-99.99,,,-99.99,,2013-05-27 03:43:00,
2013-05-26 23:53:00,49.0,48.0,-100.00,NNW,340,3.0,3.0,97,-99.99,,,-99.99,,2013-05-27 03:53:00,